contact:dominique.lefevre@mio.osupytheas.fr, maurice.libes@osupytheas.fr, didier.mallarino@osupytheas.fr
Project:EMSO http://www.emso-fr.org/EMSO-France
Depth: 2436.0 m
Title:EMSO Ligure Ouest : Data MII capteur AQUADOPP
Date,Latitude,Longitude,X_East,Y_North,Z_Up,Amplitude_X,Amplitude_Y,Amplitude_Z,Batterie,SoundSpeed,Heading,Pitch,Roll,Pressure,TIS,Speed,Direction
, degrees North, degrees East, m.s-1, m.s-1,m.s-1, 1, 1, 1, Volt, m.s-1, degree, degree, degree, dbar, degree_C, m.s-1, degree
2022-01-20T00:04:03,42.805,6.029,-0.003,-0.008,0.004,102.0,102.0,100.0,13.3,1505.2,331.5,-0.7,1.8,2470.612,13.28,0.008,200.6
2022-01-20T00:07:03,42.805,6.029,-0.002,-0.004,-0.008,102.0,103.0,102.0,13.3,1505.2,331.2,-0.7,1.8,2470.612,13.28,0.004,206.6
2022-01-20T00:10:03,42.805,6.029,0.002,-0.007,-0.017,102.0,103.0,101.0,13.4,1505.2,329.0,-0.8,1.8,2470.582,13.29,0.007,164.1
2022-01-20T00:13:03,42.805,6.029,-0.017,0.003,-0.013,103.0,102.0,102.0,13.4,1505.2,327.2,-0.8,1.8,2470.581,13.29,0.017,280.0
2022-01-20T00:16:03,42.805,6.029,-0.002,-0.013,-0.011,102.0,103.0,102.0,13.3,1505.2,328.7,-0.8,1.8,2470.562,13.29,0.013,188.7
2022-01-20T00:19:03,42.805,6.029,0.01,-0.003,-0.004,102.0,101.0,101.0,13.4,1505.2,325.9,-0.8,1.8,2470.596,13.29,0.01,106.7
2022-01-20T00:22:03,42.805,6.029,-0.01,-0.006,-0.005,104.0,103.0,102.0,13.4,1505.2,329.6,-0.7,1.8,2470.543,13.29,0.011,239.0
2022-01-20T00:25:03,42.805,6.029,-0.006,0.006,0.019,103.0,104.0,101.0,13.4,1505.2,325.2,-0.8,1.8,2470.54,13.29,0.008,315.0
2022-01-20T00:28:03,42.805,6.029,0.0,0.004,0.005,103.0,101.0,102.0,13.4,1505.2,326.6,-0.8,1.8,2470.572,13.29,0.004,0.0
2022-01-20T00:31:03,42.805,6.029,-0.007,-0.02,-0.014,102.0,104.0,100.0,13.4,1505.2,326.3,-0.8,1.8,2470.531,13.29,0.021,199.3
2022-01-20T00:34:03,42.805,6.029,0.011,0.0,0.006,102.0,103.0,100.0,13.4,1505.2,327.6,-0.8,1.8,2470.587,13.29,0.011,90.0
2022-01-20T00:37:03,42.805,6.029,0.011,-0.016,-0.011,104.0,102.0,101.0,13.4,1505.2,329.7,-0.7,1.8,2470.579,13.29,0.019,145.5
2022-01-20T00:40:03,42.805,6.029,0.01,-0.014,-0.001,103.0,103.0,101.0,13.4,1505.2,327.8,-0.8,1.8,2470.558,13.29,0.017,144.5
2022-01-20T00:43:03,42.805,6.029,0.01,0.006,0.017,104.0,102.0,100.0,13.3,1505.2,328.3,-0.8,1.8,2470.549,13.29,0.011,59.0
2022-01-20T00:46:03,42.805,6.029,0.023,-0.017,-0.013,102.0,102.0,101.0,13.4,1505.2,328.5,-0.7,1.8,2470.506,13.29,0.028,126.5
2022-01-20T00:49:03,42.805,6.029,0.017,-0.016,0.027,102.0,103.0,101.0,13.4,1505.2,328.7,-0.8,1.9,2470.597,13.29,0.023,133.3
2022-01-20T00:52:03,42.805,6.029,0.007,-0.013,-0.002,103.0,104.0,101.0,13.4,1505.2,328.8,-0.8,1.8,2470.57,13.29,0.014,151.7
2022-01-20T00:55:03,42.805,6.029,0.005,0.005,-0.011,103.0,103.0,102.0,13.4,1505.2,328.9,-0.7,1.8,2470.518,13.29,0.007,45.0
2022-01-20T00:58:03,42.805,6.029,0.006,-0.006,0.001,102.0,104.0,101.0,13.4,1505.2,327.8,-0.8,1.8,2470.545,13.29,0.008,135.0
2022-01-20T01:04:03,42.805,6.029,-0.002,-0.016,0.015,104.0,104.0,103.0,13.4,1505.2,329.7,-0.7,1.8,2470.545,13.28,0.016,187.1
2022-01-20T01:07:03,42.805,6.029,0.029,0.016,0.0,105.0,107.0,103.0,13.3,1505.2,329.1,-0.8,1.8,2470.513,13.28,0.033,61.1
2022-01-20T01:10:03,42.805,6.029,-0.003,-0.003,0.004,102.0,102.0,101.0,13.4,1505.2,329.7,-0.8,1.8,2470.544,13.28,0.004,225.0
2022-01-20T01:13:03,42.805,6.029,-0.011,0.012,0.021,103.0,102.0,100.0,13.3,1505.2,330.1,-0.8,1.8,2470.524,13.28,0.016,317.5
2022-01-20T01:16:03,42.805,6.029,0.007,-0.01,0.022,102.0,102.0,101.0,13.4,1505.2,327.0,-0.8,1.8,2470.494,13.28,0.012,145.0
2022-01-20T01:19:03,42.805,6.029,0.017,-0.007,0.027,103.0,102.0,101.0,13.3,1505.2,328.2,-0.8,1.8,2470.571,13.28,0.018,112.4
2022-01-20T01:22:03,42.805,6.029,0.01,-0.005,-0.001,102.0,102.0,101.0,13.4,1505.2,326.8,-0.7,1.8,2470.518,13.28,0.011,116.6
2022-01-20T01:25:03,42.805,6.029,0.019,0.009,0.02,103.0,103.0,101.0,13.4,1505.2,331.9,-0.8,1.8,2470.547,13.28,0.021,64.7
2022-01-20T01:28:03,42.805,6.029,0.0,0.002,0.032,102.0,104.0,101.0,13.4,1505.2,325.8,-0.7,1.8,2470.556,13.28,0.002,0.0
2022-01-20T01:31:03,42.805,6.029,0.013,-0.021,-0.012,104.0,103.0,102.0,13.4,1505.2,330.7,-0.8,1.8,2470.514,13.28,0.024,148.2
2022-01-20T01:34:03,42.805,6.029,0.001,-0.007,0.021,104.0,101.0,101.0,13.4,1505.2,323.6,-0.7,1.8,2470.503,13.29,0.007,171.9
2022-01-20T01:37:03,42.805,6.029,0.01,-0.015,-0.007,102.0,104.0,102.0,13.3,1505.2,327.5,-0.7,1.8,2470.484,13.28,0.018,146.3
2022-01-20T01:40:03,42.805,6.029,0.007,-0.015,0.008,103.0,103.0,101.0,13.4,1505.2,327.5,-0.8,1.8,2470.521,13.28,0.016,155.0
2022-01-20T01:43:03,42.805,6.029,0.024,-0.011,0.006,101.0,102.0,102.0,13.4,1505.2,326.4,-0.8,1.9,2470.505,13.28,0.026,114.6
2022-01-20T01:46:03,42.805,6.029,0.01,0.0,0.013,103.0,102.0,101.0,13.3,1505.2,326.3,-0.7,1.8,2470.509,13.28,0.01,90.0
2022-01-20T01:49:03,42.805,6.029,0.004,-0.014,-0.004,102.0,103.0,101.0,13.4,1505.2,328.3,-0.7,1.8,2470.539,13.28,0.014,164.1
2022-01-20T01:52:03,42.805,6.029,0.031,-0.032,-0.004,102.0,102.0,102.0,13.4,1505.2,324.3,-0.7,1.8,2470.503,13.28,0.044,135.9
2022-01-20T01:55:03,42.805,6.029,0.013,-0.015,-0.009,102.0,103.0,102.0,13.4,1505.2,327.1,-0.8,1.8,2470.519,13.28,0.019,139.1
2022-01-20T01:58:03,42.805,6.029,-0.002,-0.008,-0.008,102.0,102.0,101.0,13.3,1505.2,328.6,-0.8,1.8,2470.524,13.28,0.008,194.0
2022-01-20T02:04:03,42.805,6.029,0.011,0.0,0.008,101.0,103.0,101.0,13.4,1505.2,326.3,-0.8,1.8,2470.571,13.28,0.011,90.0
2022-01-20T02:07:03,42.805,6.029,-0.004,-0.027,-0.018,103.0,103.0,103.0,13.4,1505.2,331.0,-0.7,1.8,2470.539,13.28,0.027,188.4
2022-01-20T02:10:03,42.805,6.029,0.024,-0.008,0.0,104.0,103.0,101.0,13.4,1505.2,330.0,-0.8,1.8,2470.509,13.28,0.025,108.4
2022-01-20T02:13:03,42.805,6.029,0.009,-0.032,-0.04,102.0,104.0,101.0,13.3,1505.2,330.3,-0.8,1.8,2470.564,13.28,0.033,164.3
2022-01-20T02:16:03,42.805,6.029,0.005,0.004,0.003,104.0,102.0,101.0,13.4,1505.2,326.2,-0.7,1.8,2470.505,13.28,0.006,51.3
2022-01-20T02:19:03,42.805,6.029,0.005,-0.009,0.02,101.0,103.0,101.0,13.4,1505.2,329.5,-0.8,1.8,2470.527,13.28,0.01,150.9
2022-01-20T02:22:03,42.805,6.029,-0.007,-0.019,0.006,102.0,103.0,101.0,13.4,1505.2,324.9,-0.7,1.8,2470.508,13.28,0.02,200.2
2022-01-20T02:25:03,42.805,6.029,0.0,-0.006,-0.012,102.0,103.0,101.0,13.3,1505.2,328.3,-0.7,1.9,2470.492,13.28,0.006,180.0
2022-01-20T02:28:03,42.805,6.029,0.01,-0.004,-0.012,103.0,104.0,100.0,13.4,1505.2,329.8,-0.8,1.8,2470.522,13.28,0.01,111.8
2022-01-20T02:31:03,42.805,6.029,0.014,-0.006,-0.002,103.0,102.0,101.0,13.4,1505.2,324.4,-0.7,1.8,2470.52,13.28,0.015,113.2
2022-01-20T02:34:03,42.805,6.029,-0.004,-0.02,-0.005,103.0,102.0,102.0,13.4,1505.2,327.2,-0.7,1.8,2470.511,13.28,0.02,191.3
2022-01-20T02:37:03,42.805,6.029,0.003,-0.014,0.002,104.0,103.0,100.0,13.3,1505.2,331.9,-0.8,1.8,2470.524,13.28,0.014,167.9
2022-01-20T02:40:03,42.805,6.029,0.026,-0.013,0.012,102.0,103.0,102.0,13.4,1505.2,323.9,-0.8,1.8,2470.497,13.28,0.029,116.6
2022-01-20T02:43:03,42.805,6.029,-0.004,0.003,-0.007,104.0,102.0,101.0,13.4,1505.2,326.1,-0.7,1.8,2470.501,13.28,0.005,306.9
2022-01-20T02:46:03,42.805,6.029,0.021,-0.024,-0.026,102.0,104.0,101.0,13.3,1505.2,326.4,-0.8,1.8,2470.545,13.28,0.031,138.8
2022-01-20T02:49:03,42.805,6.029,0.022,-0.019,0.023,103.0,103.0,101.0,13.3,1505.2,329.6,-0.8,1.8,2470.515,13.28,0.029,130.8
2022-01-20T02:52:03,42.805,6.029,0.001,-0.003,0.027,103.0,102.0,101.0,13.3,1505.2,323.7,-0.8,1.8,2470.482,13.28,0.003,161.6
2022-01-20T02:55:03,42.805,6.029,0.011,-0.013,0.021,102.0,103.0,101.0,13.4,1505.2,328.9,-0.8,1.8,2470.518,13.28,0.017,139.8
2022-01-20T02:58:03,42.805,6.029,0.002,-0.01,-0.022,102.0,102.0,101.0,13.4,1505.2,329.3,-0.8,1.8,2470.5,13.28,0.01,168.7
2022-01-20T03:04:03,42.805,6.029,0.01,-0.002,0.018,102.0,101.0,102.0,13.4,1505.2,329.4,-0.7,1.8,2470.538,13.28,0.01,101.3
2022-01-20T03:07:03,42.805,6.029,0.014,-0.005,0.02,102.0,103.0,102.0,13.4,1505.2,331.0,-0.7,1.8,2470.504,13.28,0.014,109.6
2022-01-20T03:10:03,42.805,6.029,0.029,-0.01,-0.01,102.0,103.0,101.0,13.3,1505.2,330.6,-0.8,1.8,2470.467,13.28,0.03,109.0
2022-01-20T03:13:03,42.805,6.029,0.032,-0.031,-0.006,102.0,102.0,101.0,13.3,1505.2,326.7,-0.8,1.8,2470.502,13.28,0.044,134.1
2022-01-20T03:16:03,42.805,6.029,0.016,-0.009,0.006,101.0,103.0,102.0,13.4,1505.2,331.7,-0.8,1.8,2470.487,13.28,0.018,119.4
2022-01-20T03:19:03,42.805,6.029,0.032,-0.014,0.021,103.0,101.0,101.0,13.3,1505.2,323.5,-0.8,1.8,2470.487,13.28,0.034,113.6
2022-01-20T03:22:03,42.805,6.029,0.013,-0.028,-0.019,102.0,101.0,101.0,13.4,1505.2,327.5,-0.8,1.8,2470.503,13.28,0.03,155.1
2022-01-20T03:25:03,42.805,6.029,0.02,-0.04,-0.014,104.0,103.0,101.0,13.4,1505.2,329.7,-0.7,1.8,2470.494,13.28,0.044,153.4
2022-01-20T03:28:03,42.805,6.029,0.041,-0.014,-0.003,102.0,103.0,100.0,13.4,1505.2,326.3,-0.8,1.8,2470.479,13.28,0.043,108.9
2022-01-20T03:31:03,42.805,6.029,-0.005,-0.004,0.011,103.0,101.0,102.0,13.4,1505.2,326.8,-0.8,1.8,2470.533,13.28,0.006,231.3
2022-01-20T03:34:03,42.805,6.029,0.022,-0.019,0.017,102.0,102.0,102.0,13.3,1505.2,329.9,-0.8,1.8,2470.459,13.28,0.029,130.8
2022-01-20T03:37:03,42.805,6.029,0.019,-0.037,-0.01,102.0,102.0,101.0,13.4,1505.2,330.4,-0.8,1.8,2470.471,13.28,0.041,152.8
2022-01-20T03:40:03,42.805,6.029,0.012,-0.013,-0.03,103.0,103.0,101.0,13.4,1505.2,329.7,-0.7,1.8,2470.445,13.28,0.017,137.3
2022-01-20T04:04:03,42.805,6.029,0.012,-0.002,0.009,102.0,101.0,101.0,13.3,1505.1,327.2,-0.8,1.8,2470.603,13.27,0.012,99.5
2022-01-20T04:07:03,42.805,6.029,0.007,-0.027,0.011,104.0,104.0,101.0,13.3,1505.2,327.8,-0.7,1.8,2470.506,13.28,0.027,165.5
2022-01-20T04:10:03,42.805,6.029,0.012,-0.022,0.011,102.0,103.0,102.0,13.3,1505.2,324.0,-0.8,1.8,2470.524,13.28,0.025,151.4
2022-01-20T04:13:03,42.805,6.029,0.031,-0.024,0.001,104.0,102.0,101.0,13.4,1505.2,331.2,-0.7,1.8,2470.516,13.28,0.039,127.7
2022-01-20T04:16:03,42.805,6.029,0.02,-0.004,-0.006,102.0,103.0,101.0,13.4,1505.2,327.1,-0.7,1.9,2470.508,13.28,0.02,101.3
2022-01-20T04:19:03,42.805,6.029,0.01,-0.028,0.004,103.0,102.0,102.0,13.4,1505.2,328.3,-0.7,1.8,2470.487,13.28,0.029,160.4
2022-01-20T04:22:03,42.805,6.029,0.018,-0.01,0.021,102.0,103.0,102.0,13.4,1505.2,330.4,-0.8,1.8,2470.48,13.28,0.02,119.1
2022-01-20T04:25:03,42.805,6.029,-0.024,-0.001,-0.009,103.0,102.0,101.0,13.4,1505.2,326.6,-0.8,1.8,2470.499,13.28,0.024,267.6
2022-01-20T04:28:03,42.805,6.029,0.007,-0.015,0.0,102.0,104.0,102.0,13.4,1505.2,323.8,-0.7,1.8,2470.52,13.28,0.016,155.0
2022-01-20T04:31:03,42.805,6.029,0.011,-0.004,-0.012,103.0,103.0,102.0,13.4,1505.2,327.3,-0.8,1.8,2470.511,13.28,0.011,110.0
2022-01-20T04:34:03,42.805,6.029,0.006,-0.022,-0.002,104.0,103.0,101.0,13.3,1505.2,324.1,-0.8,1.8,2470.482,13.28,0.022,164.7
2022-01-20T04:37:03,42.805,6.029,0.024,-0.027,0.026,103.0,102.0,101.0,13.3,1505.2,325.9,-0.8,1.8,2470.482,13.28,0.036,138.4
2022-01-20T04:40:03,42.805,6.029,0.039,-0.024,0.009,102.0,102.0,102.0,13.4,1505.2,331.3,-0.8,1.8,2470.488,13.28,0.045,121.6
2022-01-20T04:43:03,42.805,6.029,0.001,-0.011,-0.001,103.0,102.0,101.0,13.4,1505.2,325.3,-0.7,1.8,2470.506,13.28,0.011,174.8
2022-01-20T04:46:03,42.805,6.029,0.015,-0.005,0.019,104.0,102.0,102.0,13.4,1505.2,327.9,-0.8,1.8,2470.494,13.28,0.015,108.4
2022-01-20T04:49:03,42.805,6.029,0.014,-0.025,0.008,103.0,103.0,101.0,13.4,1505.2,326.5,-0.7,1.8,2470.487,13.28,0.028,150.7
2022-01-20T04:52:03,42.805,6.029,0.017,-0.013,-0.006,103.0,102.0,102.0,13.4,1505.2,326.1,-0.8,1.8,2470.49,13.28,0.021,127.4
2022-01-20T04:55:03,42.805,6.029,0.021,-0.034,0.001,103.0,102.0,101.0,13.3,1505.2,329.0,-0.7,1.8,2470.463,13.28,0.039,148.3
2022-01-20T04:58:03,42.805,6.029,0.021,-0.016,-0.033,102.0,102.0,102.0,13.3,1505.2,323.9,-0.8,1.8,2470.504,13.28,0.026,127.3
2022-01-20T05:04:03,42.805,6.029,0.029,-0.023,-0.002,102.0,104.0,101.0,13.3,1505.2,327.5,-0.8,1.8,2470.458,13.28,0.037,128.4
2022-01-20T05:07:03,42.805,6.029,0.001,0.0,-0.007,102.0,102.0,101.0,13.4,1505.2,326.5,-0.8,1.8,2470.481,13.28,0.001,90.0
2022-01-20T05:10:03,42.805,6.029,0.03,-0.024,-0.002,103.0,103.0,101.0,13.4,1505.2,329.4,-0.8,1.8,2470.479,13.28,0.038,128.7
2022-01-20T05:13:03,42.805,6.029,0.012,-0.041,-0.036,103.0,102.0,101.0,13.4,1505.2,328.1,-0.8,1.8,2470.501,13.28,0.042,163.7
2022-01-20T05:16:03,42.805,6.029,0.04,-0.03,-0.025,102.0,102.0,101.0,13.4,1505.2,329.2,-0.7,1.8,2470.465,13.28,0.05,126.9
2022-01-20T05:19:03,42.805,6.029,0.011,-0.02,0.003,102.0,102.0,101.0,13.3,1505.2,327.0,-0.8,1.8,2470.506,13.28,0.022,151.2
2022-01-20T05:22:03,42.805,6.029,0.019,-0.026,0.0,102.0,101.0,101.0,13.4,1505.2,329.4,-0.7,1.9,2470.455,13.28,0.032,143.8
2022-01-20T05:25:03,42.805,6.029,0.023,-0.031,0.004,102.0,103.0,100.0,13.4,1505.2,328.3,-0.7,1.8,2470.516,13.28,0.038,143.4
2022-01-20T05:28:03,42.805,6.029,0.018,-0.021,-0.001,101.0,102.0,101.0,13.3,1505.2,327.0,-0.8,1.8,2470.479,13.28,0.027,139.4
2022-01-20T05:31:03,42.805,6.029,0.009,-0.017,-0.015,102.0,102.0,101.0,13.3,1505.2,328.3,-0.8,1.8,2470.491,13.28,0.019,152.1
2022-01-20T05:34:03,42.805,6.029,0.0,-0.005,0.019,104.0,108.0,100.0,13.4,1505.2,330.9,-0.8,1.9,2470.511,13.28,0.005,180.0
2022-01-20T05:37:03,42.805,6.029,-0.01,-0.024,-0.004,102.0,103.0,101.0,13.3,1505.2,327.1,-0.7,1.8,2470.529,13.28,0.026,202.6
2022-01-20T05:40:03,42.805,6.029,0.038,-0.042,-0.009,102.0,103.0,102.0,13.4,1505.2,328.5,-0.7,1.8,2470.515,13.28,0.056,137.9
2022-01-20T05:43:03,42.805,6.029,0.0,-0.028,-0.046,103.0,102.0,102.0,13.3,1505.2,326.8,-0.8,1.8,2470.494,13.28,0.028,180.0
2022-01-20T05:46:03,42.805,6.029,0.017,-0.017,0.002,103.0,102.0,101.0,13.4,1505.2,323.8,-0.8,1.8,2470.534,13.29,0.024,135.0
2022-01-20T05:49:03,42.805,6.029,0.021,-0.019,0.022,103.0,103.0,101.0,13.4,1505.2,326.3,-0.8,1.8,2470.516,13.28,0.028,132.1
2022-01-20T05:52:03,42.805,6.029,0.001,-0.028,-0.008,103.0,104.0,102.0,13.4,1505.2,328.0,-0.7,1.8,2470.517,13.29,0.028,178.0
2022-01-20T05:55:03,42.805,6.029,0.001,-0.028,-0.023,103.0,103.0,101.0,13.4,1505.2,328.0,-0.7,1.8,2470.565,13.29,0.028,178.0
2022-01-20T05:58:03,42.805,6.029,0.026,-0.009,0.005,103.0,103.0,101.0,13.4,1505.2,326.4,-0.7,1.8,2470.542,13.29,0.027,109.1
2022-01-20T06:04:03,42.805,6.029,0.029,-0.034,0.005,102.0,103.0,101.0,13.4,1505.2,328.7,-0.8,1.8,2470.57,13.28,0.044,139.5
2022-01-20T06:07:03,42.805,6.029,0.019,-0.024,0.01,102.0,103.0,101.0,13.3,1505.2,330.9,-0.8,1.8,2470.615,13.28,0.03,141.6
2022-01-20T06:10:03,42.805,6.029,0.014,-0.052,-0.003,102.0,103.0,101.0,13.4,1505.2,330.3,-0.8,1.8,2470.608,13.28,0.053,164.9
2022-01-20T06:13:03,42.805,6.029,-0.004,-0.024,0.042,102.0,102.0,101.0,13.4,1505.2,328.3,-0.8,1.8,2470.583,13.28,0.024,189.5
2022-01-20T06:16:03,42.805,6.029,0.002,-0.032,-0.011,104.0,103.0,101.0,13.4,1505.2,328.3,-0.8,1.8,2470.552,13.28,0.032,176.4
2022-01-20T06:19:03,42.805,6.029,0.029,-0.029,0.01,103.0,102.0,102.0,13.4,1505.2,330.1,-0.8,1.8,2470.598,13.28,0.041,135.0
2022-01-20T06:22:03,42.805,6.029,0.023,-0.032,-0.002,102.0,101.0,101.0,13.4,1505.2,325.4,-0.8,1.8,2470.615,13.28,0.039,144.3
2022-01-20T06:25:03,42.805,6.029,0.018,-0.011,-0.002,103.0,103.0,102.0,13.3,1505.2,330.6,-0.8,1.8,2470.611,13.28,0.021,121.4
2022-01-20T06:28:03,42.805,6.029,0.004,-0.022,-0.012,103.0,102.0,101.0,13.3,1505.2,328.9,-0.7,1.8,2470.628,13.28,0.022,169.7
2022-01-20T06:31:03,42.805,6.029,0.002,-0.014,0.012,102.0,102.0,101.0,13.4,1505.2,330.0,-0.8,1.8,2470.595,13.28,0.014,171.9
2022-01-20T06:34:03,42.805,6.029,0.016,-0.041,-0.045,102.0,102.0,102.0,13.3,1505.2,325.7,-0.7,1.8,2470.633,13.28,0.044,158.7
2022-01-20T06:37:03,42.805,6.029,0.017,-0.022,-0.028,102.0,102.0,101.0,13.4,1505.2,330.6,-0.7,1.8,2470.645,13.28,0.027,142.3
2022-01-20T06:40:03,42.805,6.029,0.03,-0.023,-0.019,103.0,102.0,101.0,13.4,1505.2,323.8,-0.8,1.8,2470.646,13.28,0.037,127.5
2022-01-20T06:43:03,42.805,6.029,0.02,-0.012,0.002,102.0,102.0,101.0,13.4,1505.2,328.0,-0.8,1.8,2470.646,13.28,0.023,121.0
2022-01-20T06:46:03,42.805,6.029,0.009,-0.005,0.003,101.0,103.0,101.0,13.4,1505.2,329.1,-0.8,1.8,2470.706,13.28,0.01,119.1
2022-01-20T06:49:03,42.805,6.029,0.012,-0.028,-0.021,102.0,102.0,101.0,13.4,1505.2,331.1,-0.8,1.8,2470.717,13.28,0.03,156.8
2022-01-20T06:52:03,42.805,6.029,-0.001,-0.024,0.009,102.0,104.0,100.0,13.3,1505.2,329.9,-0.8,1.8,2470.654,13.28,0.024,182.4
2022-01-20T06:55:03,42.805,6.029,-0.005,-0.026,0.009,103.0,102.0,101.0,13.3,1505.2,329.3,-0.7,1.9,2470.654,13.28,0.026,190.9
2022-01-20T06:58:03,42.805,6.029,0.013,-0.019,0.006,102.0,101.0,101.0,13.4,1505.2,324.3,-0.7,1.8,2470.667,13.28,0.023,145.6
2022-01-20T07:04:03,42.805,6.029,0.032,-0.018,-0.006,104.0,102.0,101.0,13.4,1505.2,330.6,-0.8,1.8,2470.693,13.28,0.036,119.4
2022-01-20T07:07:03,42.805,6.029,0.017,-0.021,0.001,102.0,102.0,101.0,13.4,1505.2,324.8,-0.8,1.8,2470.697,13.28,0.027,141.0
2022-01-20T07:10:03,42.805,6.029,0.02,-0.025,-0.011,103.0,102.0,102.0,13.3,1505.2,323.3,-0.8,1.8,2470.715,13.28,0.032,141.3
2022-01-20T07:13:03,42.805,6.029,0.008,-0.017,-0.013,102.0,102.0,102.0,13.4,1505.2,329.0,-0.7,1.8,2470.74,13.28,0.018,154.8
2022-01-20T07:16:03,42.805,6.029,0.02,-0.012,0.0,102.0,102.0,101.0,13.4,1505.2,327.3,-0.8,1.8,2470.709,13.28,0.023,121.0
2022-01-20T07:19:03,42.805,6.029,0.006,-0.014,-0.014,103.0,102.0,101.0,13.3,1505.2,326.3,-0.7,1.8,2470.682,13.28,0.015,156.8
2022-01-20T07:22:03,42.805,6.029,0.008,-0.011,-0.014,102.0,104.0,102.0,13.4,1505.2,328.8,-0.7,1.8,2470.723,13.28,0.013,144.0
2022-01-20T07:25:03,42.805,6.029,0.015,-0.054,-0.021,104.0,102.0,101.0,13.4,1505.2,328.8,-0.8,1.8,2470.722,13.28,0.056,164.5
2022-01-20T07:28:03,42.805,6.029,0.004,-0.033,-0.007,102.0,103.0,102.0,13.3,1505.2,329.7,-0.7,1.8,2470.703,13.28,0.033,173.1
2022-01-20T07:31:03,42.805,6.029,0.013,-0.033,-0.01,103.0,103.0,101.0,13.3,1505.2,329.1,-0.8,1.8,2470.726,13.28,0.035,158.5
2022-01-20T07:34:03,42.805,6.029,0.009,-0.032,-0.013,103.0,102.0,101.0,13.3,1505.2,327.5,-0.7,1.8,2470.704,13.28,0.033,164.3
2022-01-20T07:37:03,42.805,6.029,0.0,-0.017,-0.012,102.0,103.0,101.0,13.4,1505.2,326.8,-0.8,1.8,2470.724,13.28,0.017,180.0
2022-01-20T07:40:03,42.805,6.029,0.032,-0.022,0.016,100.0,103.0,102.0,13.4,1505.2,326.1,-0.7,1.8,2470.717,13.28,0.038,124.5
2022-01-20T07:43:03,42.805,6.029,0.012,-0.021,-0.02,103.0,104.0,101.0,13.3,1505.2,324.3,-0.8,1.8,2470.737,13.28,0.024,150.3
2022-01-20T07:46:03,42.805,6.029,0.005,-0.003,-0.006,103.0,102.0,102.0,13.3,1505.2,329.4,-0.7,1.8,2470.711,13.28,0.005,121.0
2022-01-20T07:49:03,42.805,6.029,0.022,-0.006,0.005,103.0,102.0,102.0,13.4,1505.2,326.0,-0.8,1.8,2470.753,13.28,0.022,105.3
2022-01-20T07:52:03,42.805,6.029,-0.012,-0.021,0.001,102.0,103.0,101.0,13.3,1505.2,324.6,-0.7,1.8,2470.717,13.28,0.024,209.7
2022-01-20T07:55:03,42.805,6.029,0.0,-0.02,-0.016,103.0,103.0,101.0,13.3,1505.2,326.5,-0.7,1.8,2470.72,13.28,0.02,180.0
2022-01-20T07:58:03,42.805,6.029,-0.003,-0.028,-0.025,103.0,103.0,102.0,13.4,1505.2,325.3,-0.8,1.8,2470.738,13.28,0.028,186.1
2022-01-20T08:04:03,42.805,6.029,-0.009,-0.026,-0.019,102.0,102.0,101.0,13.3,1505.2,326.7,-0.8,1.8,2470.734,13.28,0.027,199.1
2022-01-20T08:07:03,42.805,6.029,0.008,-0.036,-0.016,103.0,102.0,101.0,13.3,1505.2,329.2,-0.8,1.8,2470.732,13.28,0.036,167.5
2022-01-20T08:10:03,42.805,6.029,0.012,-0.022,0.018,102.0,103.0,101.0,13.4,1505.2,329.3,-0.8,1.9,2470.731,13.28,0.025,151.4
2022-01-20T08:13:03,42.805,6.029,0.0,-0.005,-0.036,105.0,103.0,100.0,13.3,1505.2,331.1,-0.8,1.8,2470.738,13.28,0.005,180.0
2022-01-20T08:16:03,42.805,6.029,0.001,-0.017,-0.019,102.0,104.0,102.0,13.4,1505.2,323.5,-0.8,1.8,2470.732,13.28,0.017,176.6
2022-01-20T08:19:03,42.805,6.029,-0.005,-0.023,-0.009,103.0,103.0,101.0,13.4,1505.2,326.6,-0.8,1.8,2470.729,13.28,0.023,192.3
2022-01-20T08:22:03,42.805,6.029,0.005,-0.013,0.01,102.0,103.0,102.0,13.4,1505.2,330.3,-0.7,1.8,2470.697,13.28,0.013,159.0
2022-01-20T08:25:03,42.805,6.029,-0.017,-0.023,-0.022,103.0,105.0,103.0,13.3,1505.2,325.1,-0.7,1.8,2470.739,13.28,0.028,216.5
2022-01-20T08:28:03,42.805,6.029,0.006,-0.03,-0.01,104.0,103.0,101.0,13.4,1505.2,329.9,-0.7,1.8,2470.721,13.28,0.03,168.7
2022-01-20T08:31:03,42.805,6.029,-0.002,-0.035,-0.019,102.0,102.0,102.0,13.4,1505.2,327.7,-0.8,1.8,2470.707,13.29,0.035,183.3
2022-01-20T08:34:03,42.805,6.029,-0.005,-0.03,-0.006,104.0,104.0,101.0,13.4,1505.2,326.0,-0.8,1.8,2470.722,13.29,0.03,189.5
2022-01-20T08:37:03,42.805,6.029,-0.004,-0.027,-0.023,102.0,103.0,101.0,13.4,1505.2,330.3,-0.7,1.8,2470.726,13.28,0.027,188.4
2022-01-20T08:40:03,42.805,6.029,0.011,-0.001,-0.043,102.0,103.0,101.0,13.4,1505.2,329.4,-0.8,1.8,2470.703,13.29,0.011,95.2
2022-01-20T08:43:03,42.805,6.029,0.007,-0.015,-0.021,103.0,103.0,102.0,13.3,1505.2,323.8,-0.8,1.8,2470.731,13.28,0.016,155.0
2022-01-20T08:46:03,42.805,6.029,0.015,-0.048,-0.007,104.0,102.0,101.0,13.4,1505.2,329.8,-0.8,1.8,2470.769,13.28,0.05,162.6
2022-01-20T08:49:03,42.805,6.029,-0.011,-0.03,-0.015,102.0,102.0,102.0,13.4,1505.2,327.3,-0.8,1.8,2470.707,13.28,0.031,200.1
2022-01-20T08:52:03,42.805,6.029,0.009,-0.025,0.001,102.0,102.0,101.0,13.3,1505.2,330.7,-0.7,1.8,2470.678,13.28,0.026,160.2
2022-01-20T08:55:03,42.805,6.029,0.001,-0.007,-0.009,103.0,102.0,101.0,13.4,1505.2,324.2,-0.8,1.8,2470.712,13.28,0.007,171.9
2022-01-20T08:58:03,42.805,6.029,0.01,-0.03,-0.037,103.0,102.0,102.0,13.3,1505.2,331.0,-0.8,1.8,2470.695,13.28,0.031,161.6
2022-01-20T09:04:03,42.805,6.029,0.013,0.001,0.045,103.0,103.0,101.0,13.4,1505.2,329.6,-0.7,1.8,2470.777,13.28,0.013,85.6
2022-01-20T09:07:03,42.805,6.029,0.0,-0.019,-0.009,102.0,103.0,101.0,13.3,1505.2,331.7,-0.7,1.8,2470.73,13.28,0.019,180.0
2022-01-20T09:10:03,42.805,6.029,0.001,-0.03,-0.046,102.0,102.0,102.0,13.3,1505.2,329.2,-0.7,1.8,2470.748,13.28,0.03,178.1
2022-01-20T09:13:03,42.805,6.029,0.017,-0.021,-0.009,102.0,102.0,101.0,13.4,1505.2,329.9,-0.8,1.8,2470.711,13.28,0.027,141.0
2022-01-20T09:16:03,42.805,6.029,-0.009,-0.022,-0.03,103.0,103.0,101.0,13.3,1505.2,324.4,-0.7,1.8,2470.723,13.28,0.023,202.2
2022-01-20T09:19:03,42.805,6.029,0.005,0.0,-0.014,102.0,102.0,102.0,13.4,1505.2,329.4,-0.7,1.8,2470.727,13.28,0.005,90.0
2022-01-20T09:22:03,42.805,6.029,0.009,-0.006,-0.012,103.0,102.0,101.0,13.4,1505.2,327.8,-0.7,1.8,2470.736,13.28,0.01,123.7
2022-01-20T09:25:03,42.805,6.029,-0.001,-0.01,0.008,101.0,104.0,101.0,13.3,1505.2,326.2,-0.7,1.8,2470.713,13.28,0.01,185.7
2022-01-20T09:28:03,42.805,6.029,-0.009,-0.026,-0.021,104.0,102.0,101.0,13.3,1505.2,328.9,-0.8,1.8,2470.738,13.28,0.027,199.1
2022-01-20T09:31:03,42.805,6.029,0.0,-0.01,-0.019,103.0,102.0,101.0,13.4,1505.2,330.7,-0.7,1.8,2470.694,13.28,0.01,180.0
2022-01-20T09:34:03,42.805,6.029,0.001,-0.029,-0.001,103.0,102.0,101.0,13.4,1505.2,329.7,-0.8,1.9,2470.708,13.28,0.029,178.0
2022-01-20T09:37:03,42.805,6.029,0.001,-0.01,0.002,103.0,103.0,102.0,13.4,1505.2,329.8,-0.7,1.8,2470.686,13.28,0.01,174.3
2022-01-20T09:40:03,42.805,6.029,-0.016,-0.021,-0.014,103.0,102.0,101.0,13.4,1505.2,328.0,-0.7,1.8,2470.753,13.28,0.026,217.3
2022-01-20T09:43:03,42.805,6.029,0.019,-0.022,-0.033,104.0,104.0,101.0,13.4,1505.2,324.4,-0.7,1.8,2470.693,13.29,0.029,139.2
2022-01-20T09:46:03,42.805,6.029,-0.002,-0.04,-0.003,103.0,101.0,102.0,13.3,1505.2,323.7,-0.8,1.8,2470.732,13.28,0.04,182.9
2022-01-20T09:49:03,42.805,6.029,0.0,-0.029,-0.019,101.0,104.0,101.0,13.4,1505.2,325.6,-0.7,1.8,2470.747,13.28,0.028,180.0
2022-01-20T09:52:03,42.805,6.029,-0.001,-0.024,-0.033,103.0,103.0,102.0,13.4,1505.2,327.3,-0.7,1.8,2470.729,13.28,0.024,182.4
2022-01-20T09:55:03,42.805,6.029,-0.012,-0.024,0.007,103.0,103.0,101.0,13.4,1505.2,326.0,-0.8,1.8,2470.751,13.29,0.026,206.6
2022-01-20T09:58:03,42.805,6.029,0.008,-0.033,-0.005,103.0,103.0,102.0,13.4,1505.2,326.3,-0.8,1.8,2470.719,13.29,0.033,166.4
2022-01-20T10:04:03,42.805,6.029,-0.011,-0.009,-0.044,103.0,102.0,101.0,13.4,1505.2,324.0,-0.7,1.8,2470.785,13.28,0.014,230.7
2022-01-20T10:07:03,42.805,6.029,-0.015,-0.016,-0.014,103.0,102.0,102.0,13.4,1505.2,329.4,-0.8,1.8,2470.774,13.28,0.021,223.1
2022-01-20T10:10:03,42.805,6.029,0.007,-0.028,-0.027,102.0,102.0,101.0,13.4,1505.2,323.8,-0.7,1.9,2470.718,13.28,0.028,166.0
2022-01-20T10:13:03,42.805,6.029,-0.021,-0.004,0.0,103.0,102.0,103.0,13.4,1505.2,329.6,-0.8,1.8,2470.714,13.28,0.021,259.2
2022-01-20T10:16:03,42.805,6.029,0.0,-0.026,0.007,102.0,103.0,102.0,13.4,1505.2,326.8,-0.8,1.8,2470.702,13.28,0.026,180.0